Current weather by "City, St" or "zip code"  
 

Current Conditions: Meridian, Key Field, MS

Overcast


71.0 F

Last Updated on Oct 24 2020, 11:58 am CDT
Humidity: 87%
Wind Speed: N 9.2 mph
Barometer 29.98 in
Dewpoint: 66.9 F
Visibility: 7.00 mi
Precip: --
Heat Index: NA
Wind Chill: NA
Current conditions at:

Meridian, Key Field, MS (KMEI)

Lat: 32.33806 Lon: 88.74778

Local Radar Image active severe weather and emergency alerts image image weather storm and storm spotter reports image weather observation monitoring service image
Local
Radar
Active
Alerts
Storm Reports Obs
Monitoring

Sign-up For Email & Text Message Weather Alert Notification Services



Advertise Here

Observation History for Meridian, Key Field, MS


Time Wind
(mph)
Vis
(mi)
Weather Precip (in) Temperature (F) Relative
Humidity
Wind
Chill
(F)
Heat
Index
(F)
Pressure
Air Dwpt altimeter
(in)
sea level
(mb)
Rmks
11:58 am CDT N 9.2 7.00 Overcast -- 71.0 66.9 87% NA NA 29.98 1014.7
10:58 am CDT N 5.8 10.00 Overcast 00.02 71.0 68.0 90% NA NA 29.99 1015.3
9:58 am CDT N 4.6 3.00 Rain Fog/Mist 00.10 70.0 68.0 93% NA NA 29.99 1015.4
8:58 am CDT W 3.5 6.00 Rain Fog/Mist 00.03 70.0 68.0 93% NA NA 30.00 1015.4
7:58 am CDT N 0.0 8.00 Light Rain 00.10 69.0 66.9 93% NA NA 29.98 1014.9
6:58 am CDT N 3.5 7.00 Rain 00.20 69.0 66.9 93% NA NA 29.97 1014.5
5:58 am CDT N 0.0 8.00 Light Rain 00.27 69.0 66.9 93% NA NA 29.98 1014.7
4:58 am CDT NW 3.5 1.25 Heavy Rain Fog/Mist -- 69.0 66.9 93% NA NA 29.97 1014.5
3:58 am CDT N 6.9 2.50 Thunderstorm in Vicinity Rain Fog/Mist 00.50 69.0 68.0 96% NA NA 29.96 1014.2
2:58 am CDT NW 4.6 10.00 Overcast Trace 71.0 69.1 94% NA NA 29.96 1014.2
1:58 am CDT N 0.0 10.00 Light Rain 00.01 71.0 69.1 94% NA NA 29.97 1014.5
12:58 am CDT N 0.0 8.00 Light Rain Trace 71.0 69.1 94% NA NA 29.98 1014.8
11:58 pm CDT N 0.0 10.00 Mostly Cloudy 00.01 72.0 70.0 94% NA NA 30.00 1015.6
10:58 pm CDT NE 3.5 8.00 Light Rain 00.15 71.0 69.1 94% NA NA 30.01 1015.7
9:58 pm CDT N 0.0 10.00 A Few Clouds -- 69.0 66.9 93% NA NA 30.01 1016.0
8:58 pm CDT N 0.0 10.00 Fair -- 70.0 66.9 90% NA NA 30.00 1015.5
7:58 pm CDT N 0.0 10.00 Fair -- 72.0 68.0 87% NA NA 29.99 1015.1
6:58 pm CDT S 3.5 10.00 Fair -- 75.0 68.0 79% NA NA 29.97 1014.7
5:58 pm CDT SE 4.6 10.00 Fair -- 82.0 66.9 60% NA 84 29.96 1014.3
4:58 pm CDT E 8.1 10.00 Fair -- 85.0 68.0 57% NA 88 29.96 1014.0
3:58 pm CDT SE 9.2 10.00 Mostly Cloudy -- 86.0 68.0 55% NA 89 29.94 1013.6
2:58 pm CDT 10.00 Mostly Cloudy -- 87.0 68.0 53% NA 90 29.98 1014.7
1:58 pm CDT N 0.0 10.00 Mostly Cloudy -- 86.0 69.1 57% NA 90 30.00 1015.6
12:58 pm CDT 3.5 10.00 A Few Clouds -- 82.0 69.1 65% NA 85 30.04 1016.8

Regional Weather Observation


Meridian, Meridian Naval Air Station - McCain Field, MS (KNMM)

Overcast
66.0 F

George M Bryan Airport, Starkville, MS (KSTF)

Fog/Mist
54.0 F

Columbus/West Point/Starkville, Golden Triangle Regional Airport, MS (KGTR)

Overcast
56.0 F

Jackson, Jackson International Airport, MS (KJAN)

Fog/Mist
57.0 F

Columbus Air Force Base, MS (KCBM)

Overcast
57.0 F

Hattiesburg/Laurel, Hattiesburg-Laurel Regional Airport, MS (KPIB)

Overcast
69.0 F